Year,Month,Day,Hour,Minute,Value (Times are PST for temperature in C)
2021,04,13,00,00,7.10
2021,04,13,00,01,7.10
2021,04,13,00,02,7.10
2021,04,13,00,03,7.10
2021,04,13,00,04,7.10
2021,04,13,00,05,7.00
2021,04,13,00,06,7.00
2021,04,13,00,07,6.90
2021,04,13,00,08,6.90
2021,04,13,00,09,6.80
2021,04,13,00,10,6.80
2021,04,13,00,11,6.80
2021,04,13,00,12,6.70
2021,04,13,00,13,6.60
2021,04,13,00,14,6.60
2021,04,13,00,15,6.50
2021,04,13,00,16,6.30
2021,04,13,00,17,6.20
2021,04,13,00,18,6.10
2021,04,13,00,19,6.10
2021,04,13,00,20,5.90
2021,04,13,00,21,5.90
2021,04,13,00,22,5.80
2021,04,13,00,23,5.70
2021,04,13,00,24,5.70
2021,04,13,00,25,5.60
2021,04,13,00,26,5.70
2021,04,13,00,27,5.70
2021,04,13,00,28,5.70
2021,04,13,00,29,5.60
2021,04,13,00,30,5.60
2021,04,13,00,31,5.50
2021,04,13,00,32,5.40
2021,04,13,00,33,5.40
2021,04,13,00,34,5.30
2021,04,13,00,35,5.20
2021,04,13,00,36,5.20
2021,04,13,00,37,5.10
2021,04,13,00,38,5.10
2021,04,13,00,39,5.10
2021,04,13,00,40,5.10
2021,04,13,00,41,5.10
2021,04,13,00,42,5.20
2021,04,13,00,43,5.30
2021,04,13,00,44,5.50
2021,04,13,00,45,5.60
2021,04,13,00,46,5.70
2021,04,13,00,47,5.80
2021,04,13,00,48,5.90
2021,04,13,00,49,6.00
2021,04,13,00,50,6.10
2021,04,13,00,51,6.10
2021,04,13,00,52,6.10
2021,04,13,00,53,6.20
2021,04,13,00,54,6.20
2021,04,13,00,55,6.20
2021,04,13,00,56,6.20
2021,04,13,00,57,6.20
2021,04,13,00,58,6.20
2021,04,13,00,59,6.20
2021,04,13,01,00,6.20
2021,04,13,01,01,6.20
2021,04,13,01,02,6.20
2021,04,13,01,03,6.20
2021,04,13,01,04,6.20
2021,04,13,01,05,6.20
2021,04,13,01,06,6.20
2021,04,13,01,07,6.20
2021,04,13,01,08,6.10
2021,04,13,01,09,6.10
2021,04,13,01,10,6.10
2021,04,13,01,11,6.00
2021,04,13,01,12,6.00
2021,04,13,01,13,5.90
2021,04,13,01,14,5.90
2021,04,13,01,15,5.80
2021,04,13,01,16,5.80
2021,04,13,01,17,5.80
2021,04,13,01,18,5.80
2021,04,13,01,19,5.80
2021,04,13,01,20,5.80
2021,04,13,01,21,5.80
2021,04,13,01,22,5.80
2021,04,13,01,23,5.80
2021,04,13,01,24,5.80
2021,04,13,01,25,5.80
2021,04,13,01,26,5.90
2021,04,13,01,27,5.90
2021,04,13,01,28,5.90
2021,04,13,01,29,5.80
2021,04,13,01,30,5.80
2021,04,13,01,31,5.80
2021,04,13,01,32,5.80
2021,04,13,01,33,5.80
2021,04,13,01,34,5.90
2021,04,13,01,35,6.00
2021,04,13,01,36,6.00
2021,04,13,01,37,6.00
2021,04,13,01,38,6.00
2021,04,13,01,39,6.00
2021,04,13,01,40,5.90
2021,04,13,01,41,5.90
2021,04,13,01,42,5.90
2021,04,13,01,43,5.80
2021,04,13,01,44,5.80
2021,04,13,01,45,5.80
2021,04,13,01,46,5.80
2021,04,13,01,47,5.70
2021,04,13,01,48,5.70
2021,04,13,01,49,5.70
2021,04,13,01,50,5.60
2021,04,13,01,51,5.60
2021,04,13,01,52,5.50
2021,04,13,01,53,5.50
2021,04,13,01,54,5.40
2021,04,13,01,55,5.40
2021,04,13,01,56,5.30
2021,04,13,01,57,5.30
2021,04,13,01,58,5.20
2021,04,13,01,59,5.20
2021,04,13,02,00,5.10
2021,04,13,02,01,5.10
2021,04,13,02,02,5.10
2021,04,13,02,03,5.10
2021,04,13,02,04,5.10
2021,04,13,02,05,5.20
2021,04,13,02,06,5.20
2021,04,13,02,07,5.20
2021,04,13,02,08,5.30
2021,04,13,02,09,5.30
2021,04,13,02,10,5.30
2021,04,13,02,11,5.30
2021,04,13,02,12,5.30
2021,04,13,02,13,5.30
2021,04,13,02,14,5.40
2021,04,13,02,15,5.40
2021,04,13,02,16,5.30
2021,04,13,02,17,5.30
2021,04,13,02,18,5.30
2021,04,13,02,19,5.40
2021,04,13,02,20,5.30
2021,04,13,02,21,5.30
2021,04,13,02,22,5.30
2021,04,13,02,23,5.30
2021,04,13,02,24,5.30
2021,04,13,02,25,5.30
2021,04,13,02,26,5.30
2021,04,13,02,27,5.30
2021,04,13,02,28,5.30
2021,04,13,02,29,5.30
2021,04,13,02,30,5.20
2021,04,13,02,31,5.20
2021,04,13,02,32,5.20
2021,04,13,02,33,5.20
2021,04,13,02,34,5.20
2021,04,13,02,35,5.10
2021,04,13,02,36,5.10
2021,04,13,02,37,5.10
2021,04,13,02,38,5.10
2021,04,13,02,39,5.00
2021,04,13,02,40,5.00
2021,04,13,02,41,5.00
2021,04,13,02,42,5.00
2021,04,13,02,43,5.00
2021,04,13,02,44,4.90
2021,04,13,02,45,4.90
2021,04,13,02,46,4.90
2021,04,13,02,47,4.90
2021,04,13,02,48,4.90
2021,04,13,02,49,4.90
2021,04,13,02,50,4.90
2021,04,13,02,51,4.90
2021,04,13,02,52,4.90
2021,04,13,02,53,4.90
2021,04,13,02,54,4.80
2021,04,13,02,55,4.80
2021,04,13,02,56,4.80
2021,04,13,02,57,4.80
2021,04,13,02,58,4.80
2021,04,13,02,59,4.70
2021,04,13,03,00,4.70
2021,04,13,03,01,4.70
2021,04,13,03,02,4.60
2021,04,13,03,03,4.70
2021,04,13,03,04,4.70
2021,04,13,03,05,4.60
2021,04,13,03,06,4.60
2021,04,13,03,07,4.60
2021,04,13,03,08,4.60
2021,04,13,03,09,4.60
2021,04,13,03,10,4.60
2021,04,13,03,11,4.60
2021,04,13,03,12,4.50
2021,04,13,03,13,4.50
2021,04,13,03,14,4.50
2021,04,13,03,15,4.50
2021,04,13,03,16,4.50
2021,04,13,03,17,4.50
2021,04,13,03,18,4.50
2021,04,13,03,19,4.50
2021,04,13,03,20,4.40
2021,04,13,03,21,4.40
2021,04,13,03,22,4.40
2021,04,13,03,23,4.30
2021,04,13,03,24,4.30
2021,04,13,03,25,4.30
2021,04,13,03,26,4.30
2021,04,13,03,27,4.20
2021,04,13,03,28,4.20
2021,04,13,03,29,4.20
2021,04,13,03,30,4.20
2021,04,13,03,31,4.20
2021,04,13,03,32,4.20
2021,04,13,03,33,4.20
2021,04,13,03,34,4.20
2021,04,13,03,35,4.20
2021,04,13,03,36,4.20
2021,04,13,03,37,4.20
2021,04,13,03,38,4.20
2021,04,13,03,39,4.20
2021,04,13,03,40,4.10
2021,04,13,03,41,4.10
2021,04,13,03,42,4.10
2021,04,13,03,43,4.10
2021,04,13,03,44,4.00
2021,04,13,03,45,4.00
2021,04,13,03,46,3.90
2021,04,13,03,47,3.90
2021,04,13,03,48,3.90
2021,04,13,03,49,3.80
2021,04,13,03,50,3.90
2021,04,13,03,51,3.90
2021,04,13,03,52,3.90
2021,04,13,03,53,3.90
2021,04,13,03,54,3.90
2021,04,13,03,55,3.90
2021,04,13,03,56,3.90
2021,04,13,03,57,4.00
2021,04,13,03,58,4.00
2021,04,13,03,59,4.10
2021,04,13,04,00,4.10
2021,04,13,04,01,4.00
2021,04,13,04,02,4.00
2021,04,13,04,03,4.00
2021,04,13,04,04,3.90
2021,04,13,04,05,3.90
2021,04,13,04,06,3.90
2021,04,13,04,07,3.90
2021,04,13,04,08,3.90
2021,04,13,04,09,4.00
2021,04,13,04,10,4.00
2021,04,13,04,11,4.10
2021,04,13,04,12,4.10
2021,04,13,04,13,4.10
2021,04,13,04,14,4.10
2021,04,13,04,15,4.10
2021,04,13,04,16,4.10
2021,04,13,04,17,4.10
2021,04,13,04,18,4.10
2021,04,13,04,19,4.10
2021,04,13,04,20,4.10
2021,04,13,04,21,4.00
2021,04,13,04,22,3.90
2021,04,13,04,23,3.90
2021,04,13,04,24,3.80
2021,04,13,04,25,3.70
2021,04,13,04,26,3.60
2021,04,13,04,27,3.50
2021,04,13,04,28,3.50
2021,04,13,04,29,3.40
2021,04,13,04,30,3.40
2021,04,13,04,31,3.30
2021,04,13,04,32,3.20
2021,04,13,04,33,3.10
2021,04,13,04,34,3.10
2021,04,13,04,35,3.00
2021,04,13,04,36,3.00
2021,04,13,04,37,3.00
2021,04,13,04,38,3.00
2021,04,13,04,39,3.00
2021,04,13,04,40,3.00
2021,04,13,04,41,3.10
2021,04,13,04,42,3.10
2021,04,13,04,43,3.20
2021,04,13,04,44,3.30
2021,04,13,04,45,3.30
2021,04,13,04,46,3.40
2021,04,13,04,47,3.40
2021,04,13,04,48,3.50
2021,04,13,04,49,3.60
2021,04,13,04,50,3.60
2021,04,13,04,51,3.60
2021,04,13,04,52,3.60
2021,04,13,04,53,3.70
2021,04,13,04,54,3.70
2021,04,13,04,55,3.70
2021,04,13,04,56,3.80
2021,04,13,04,57,3.80
2021,04,13,04,58,3.80
2021,04,13,04,59,3.80
2021,04,13,05,00,3.80
2021,04,13,05,01,3.80
2021,04,13,05,02,3.80
2021,04,13,05,03,3.80
2021,04,13,05,04,3.70
2021,04,13,05,05,3.70
2021,04,13,05,06,3.60
2021,04,13,05,07,3.60
2021,04,13,05,08,3.50
2021,04,13,05,09,3.50
2021,04,13,05,10,3.50
2021,04,13,05,11,3.50
2021,04,13,05,12,3.60
2021,04,13,05,13,3.60
2021,04,13,05,14,3.60
2021,04,13,05,15,3.60
2021,04,13,05,16,3.60
2021,04,13,05,17,3.60
2021,04,13,05,18,3.60
2021,04,13,05,19,3.60
2021,04,13,05,20,3.50
2021,04,13,05,21,3.50
2021,04,13,05,22,3.50
2021,04,13,05,23,3.50
2021,04,13,05,24,3.50
2021,04,13,05,25,3.50
2021,04,13,05,26,3.50
2021,04,13,05,27,3.50
2021,04,13,05,28,3.50
2021,04,13,05,29,3.50
2021,04,13,05,30,3.50
2021,04,13,05,31,3.60
2021,04,13,05,32,3.60
2021,04,13,05,33,3.60
2021,04,13,05,34,3.60
2021,04,13,05,35,3.50
2021,04,13,05,36,3.50
2021,04,13,05,37,3.60
2021,04,13,05,38,3.60
2021,04,13,05,39,3.70
2021,04,13,05,40,3.70
2021,04,13,05,41,3.70
2021,04,13,05,42,3.70
2021,04,13,05,43,3.70
2021,04,13,05,44,3.70
2021,04,13,05,45,3.80
2021,04,13,05,46,3.80
2021,04,13,05,47,3.80
2021,04,13,05,48,3.80
2021,04,13,05,49,3.80
2021,04,13,05,50,3.80
2021,04,13,05,51,3.80
2021,04,13,05,52,3.80
2021,04,13,05,53,3.80
2021,04,13,05,54,3.80
2021,04,13,05,55,3.80
2021,04,13,05,56,3.70
2021,04,13,05,57,3.70
2021,04,13,05,58,3.70
2021,04,13,05,59,3.70
2021,04,13,06,00,3.70
2021,04,13,06,01,3.60
2021,04,13,06,02,3.60
2021,04,13,06,03,3.60
2021,04,13,06,04,3.60
2021,04,13,06,05,3.60
2021,04,13,06,06,3.60
2021,04,13,06,07,3.60
2021,04,13,06,08,3.60
2021,04,13,06,09,3.60
2021,04,13,06,10,3.60
2021,04,13,06,11,3.60
2021,04,13,06,12,3.60
2021,04,13,06,13,3.60
2021,04,13,06,14,3.60
2021,04,13,06,15,3.60
2021,04,13,06,16,3.60
2021,04,13,06,17,3.60
2021,04,13,06,18,3.70
2021,04,13,06,19,3.70
2021,04,13,06,20,3.70
2021,04,13,06,21,3.70
2021,04,13,06,22,3.70
2021,04,13,06,23,3.70
2021,04,13,06,24,3.70
2021,04,13,06,25,3.70
2021,04,13,06,26,3.70
2021,04,13,06,27,3.70
2021,04,13,06,28,3.60
2021,04,13,06,29,3.70
2021,04,13,06,30,3.70
2021,04,13,06,31,3.70
2021,04,13,06,32,3.70
2021,04,13,06,33,3.70
2021,04,13,06,34,3.70
2021,04,13,06,35,3.60
2021,04,13,06,36,3.60
2021,04,13,06,37,3.60
2021,04,13,06,38,3.60
2021,04,13,06,39,3.60
2021,04,13,06,40,3.60
2021,04,13,06,41,3.60
2021,04,13,06,42,3.60
2021,04,13,06,43,3.60
2021,04,13,06,44,3.60
2021,04,13,06,45,3.60
2021,04,13,06,46,3.60
2021,04,13,06,47,3.60
2021,04,13,06,48,3.60
2021,04,13,06,49,3.50
2021,04,13,06,50,3.50
2021,04,13,06,51,3.40
2021,04,13,06,52,3.40
2021,04,13,06,53,3.40
2021,04,13,06,54,3.40
2021,04,13,06,55,3.30
2021,04,13,06,56,3.30
2021,04,13,06,57,3.30
2021,04,13,06,58,3.30
2021,04,13,06,59,3.30
2021,04,13,07,00,3.30
2021,04,13,07,01,3.40
2021,04,13,07,02,3.40
2021,04,13,07,03,3.40
2021,04,13,07,04,3.50
2021,04,13,07,05,3.50
2021,04,13,07,06,3.50
2021,04,13,07,07,3.50
2021,04,13,07,08,3.60
2021,04,13,07,09,3.50
2021,04,13,07,10,3.60
2021,04,13,07,11,3.60
2021,04,13,07,12,3.60
2021,04,13,07,13,3.60
2021,04,13,07,14,3.60
2021,04,13,07,15,3.60
2021,04,13,07,16,3.60
2021,04,13,07,17,3.70
2021,04,13,07,18,3.70
2021,04,13,07,19,3.70
2021,04,13,07,20,3.80
2021,04,13,07,21,3.80
2021,04,13,07,22,3.80
2021,04,13,07,23,3.90
2021,04,13,07,24,3.90
2021,04,13,07,25,3.90
2021,04,13,07,26,3.90
2021,04,13,07,27,3.90
2021,04,13,07,28,4.00
2021,04,13,07,29,4.00
2021,04,13,07,30,4.10
2021,04,13,07,31,4.10
2021,04,13,07,32,4.10
2021,04,13,07,33,4.10
2021,04,13,07,34,4.10
2021,04,13,07,35,4.20
2021,04,13,07,36,4.20
2021,04,13,07,37,4.20
2021,04,13,07,38,4.20
2021,04,13,07,39,4.30
2021,04,13,07,40,4.30
2021,04,13,07,41,4.30
2021,04,13,07,42,4.30
2021,04,13,07,43,4.40
2021,04,13,07,44,4.40
2021,04,13,07,45,4.40
2021,04,13,07,46,4.50
2021,04,13,07,47,4.50
2021,04,13,07,48,4.60
2021,04,13,07,49,4.60
2021,04,13,07,50,4.60
2021,04,13,07,51,4.60
2021,04,13,07,52,4.60
2021,04,13,07,53,4.70
2021,04,13,07,54,4.70
2021,04,13,07,55,4.70
2021,04,13,07,56,4.80
2021,04,13,07,57,4.80
2021,04,13,07,58,4.80
2021,04,13,07,59,4.90
2021,04,13,08,00,4.90
2021,04,13,08,01,5.00
2021,04,13,08,02,5.00
2021,04,13,08,03,5.00
2021,04,13,08,04,5.10
2021,04,13,08,05,5.10
2021,04,13,08,06,5.20
2021,04,13,08,07,5.20
2021,04,13,08,08,5.20
2021,04,13,08,09,5.20
2021,04,13,08,10,5.20
2021,04,13,08,11,5.30
2021,04,13,08,12,5.30
2021,04,13,08,13,5.30
2021,04,13,08,14,5.30
2021,04,13,08,15,5.40
2021,04,13,08,16,5.40
2021,04,13,08,17,5.50
2021,04,13,08,18,5.60
2021,04,13,08,19,5.60
2021,04,13,08,20,5.70
2021,04,13,08,21,5.80
2021,04,13,08,22,5.90
2021,04,13,08,23,6.00
2021,04,13,08,24,6.20
2021,04,13,08,25,6.30
2021,04,13,08,26,6.40
2021,04,13,08,27,6.50
2021,04,13,08,28,6.50
2021,04,13,08,29,6.60
2021,04,13,08,30,6.60
2021,04,13,08,31,6.60
2021,04,13,08,32,6.60
2021,04,13,08,33,6.60
2021,04,13,08,34,6.60
2021,04,13,08,35,6.70
2021,04,13,08,36,6.60
2021,04,13,08,37,6.60
2021,04,13,08,38,6.60
2021,04,13,08,39,6.60
2021,04,13,08,40,6.60
2021,04,13,08,41,6.70
2021,04,13,08,42,6.70
2021,04,13,08,43,6.70
2021,04,13,08,44,6.80
2021,04,13,08,45,6.80
2021,04,13,08,46,6.90
2021,04,13,08,47,6.90
2021,04,13,08,48,7.10
2021,04,13,08,49,7.10
2021,04,13,08,50,7.30
2021,04,13,08,51,7.30
2021,04,13,08,52,7.40
2021,04,13,08,53,7.40
2021,04,13,08,54,7.50
2021,04,13,08,55,7.50
2021,04,13,08,56,7.60
2021,04,13,08,57,7.70
2021,04,13,08,58,7.80
2021,04,13,08,59,7.90
2021,04,13,09,00,8.00
2021,04,13,09,01,8.10
2021,04,13,09,02,8.20
2021,04,13,09,03,8.30
2021,04,13,09,04,8.40
2021,04,13,09,05,8.50
2021,04,13,09,06,8.60
2021,04,13,09,07,8.60
2021,04,13,09,08,8.70
2021,04,13,09,09,8.70
2021,04,13,09,10,8.70
2021,04,13,09,11,8.80
2021,04,13,09,12,8.80
2021,04,13,09,13,8.90
2021,04,13,09,14,9.00
2021,04,13,09,15,9.10
2021,04,13,09,16,9.10
2021,04,13,09,17,9.20
2021,04,13,09,18,9.30
2021,04,13,09,19,9.40
2021,04,13,09,20,9.50
2021,04,13,09,21,9.50
2021,04,13,09,22,9.60
2021,04,13,09,23,9.60
2021,04,13,09,24,9.70
2021,04,13,09,25,9.70
2021,04,13,09,26,9.70
2021,04,13,09,27,9.70
2021,04,13,09,28,9.70
2021,04,13,09,29,9.70
2021,04,13,09,30,9.70
2021,04,13,09,31,9.70
2021,04,13,09,32,9.70
2021,04,13,09,33,9.70
2021,04,13,09,34,9.60
2021,04,13,09,35,9.60
2021,04,13,09,36,9.70
2021,04,13,09,37,9.80
2021,04,13,09,38,9.80
2021,04,13,09,39,9.80
2021,04,13,09,40,9.90
2021,04,13,09,41,9.80
2021,04,13,09,42,9.70
2021,04,13,09,43,9.70
2021,04,13,09,44,9.60
2021,04,13,09,45,9.50
2021,04,13,09,46,9.50
2021,04,13,09,47,9.40
2021,04,13,09,48,9.30
2021,04,13,09,49,9.30
2021,04,13,09,50,9.40
2021,04,13,09,51,9.40
2021,04,13,09,52,9.50
2021,04,13,09,53,9.60
2021,04,13,09,54,9.70
2021,04,13,09,55,9.70
2021,04,13,09,56,9.70
2021,04,13,09,57,9.60
2021,04,13,09,58,9.50
2021,04,13,09,59,9.50
2021,04,13,10,00,9.50
2021,04,13,10,01,9.60
2021,04,13,10,02,9.60
2021,04,13,10,03,9.70
2021,04,13,10,04,9.70
2021,04,13,10,05,9.70
2021,04,13,10,06,9.70
2021,04,13,10,07,9.70
2021,04,13,10,08,9.60
2021,04,13,10,09,9.50
2021,04,13,10,10,9.50
2021,04,13,10,11,9.50
2021,04,13,10,12,9.50
2021,04,13,10,13,9.50
2021,04,13,10,14,9.50
2021,04,13,10,15,9.60
2021,04,13,10,16,9.70
2021,04,13,10,17,9.80
2021,04,13,10,18,9.90
2021,04,13,10,19,9.90
2021,04,13,10,20,10.00
2021,04,13,10,21,10.10
2021,04,13,10,22,10.20
2021,04,13,10,23,10.20
2021,04,13,10,24,10.30
2021,04,13,10,25,10.40
2021,04,13,10,26,10.50
2021,04,13,10,27,10.70
2021,04,13,10,28,10.80
2021,04,13,10,29,10.90
2021,04,13,10,30,11.00
2021,04,13,10,31,11.10
2021,04,13,10,32,11.10
2021,04,13,10,33,11.10
2021,04,13,10,34,11.20
2021,04,13,10,35,11.20
2021,04,13,10,36,11.30
2021,04,13,10,37,11.40
2021,04,13,10,38,11.40
2021,04,13,10,39,11.40
2021,04,13,10,40,11.40
2021,04,13,10,41,11.40
2021,04,13,10,42,11.40
2021,04,13,10,43,11.40
2021,04,13,10,44,11.30
2021,04,13,10,45,11.30
2021,04,13,10,46,11.30
2021,04,13,10,47,11.30
2021,04,13,10,48,11.30
2021,04,13,10,49,11.30
2021,04,13,10,50,11.40
2021,04,13,10,51,11.40
2021,04,13,10,52,11.50
2021,04,13,10,53,11.50
2021,04,13,10,54,11.70
2021,04,13,10,55,11.80
2021,04,13,10,56,11.80
2021,04,13,10,57,12.00
2021,04,13,10,58,12.10
2021,04,13,10,59,12.20
2021,04,13,11,00,12.30
2021,04,13,11,01,12.30
2021,04,13,11,02,12.40
2021,04,13,11,03,12.40
2021,04,13,11,04,12.40
2021,04,13,11,05,12.50
2021,04,13,11,06,12.50
2021,04,13,11,07,12.60
2021,04,13,11,08,12.60
2021,04,13,11,09,12.50
2021,04,13,11,10,12.40
2021,04,13,11,11,12.30
2021,04,13,11,12,12.20
2021,04,13,11,13,12.20
2021,04,13,11,14,12.30
2021,04,13,11,15,12.30
2021,04,13,11,16,12.30
2021,04,13,11,17,12.30
2021,04,13,11,18,12.30
2021,04,13,11,19,12.30
2021,04,13,11,20,12.40
2021,04,13,11,21,12.50
2021,04,13,11,22,12.60
2021,04,13,11,23,12.50
2021,04,13,11,24,12.50
2021,04,13,11,25,12.50
2021,04,13,11,26,12.50
2021,04,13,11,27,12.60
2021,04,13,11,28,12.50
2021,04,13,11,29,12.50
2021,04,13,11,30,12.40
2021,04,13,11,31,12.50
2021,04,13,11,32,12.70
2021,04,13,11,33,12.80
2021,04,13,11,34,12.80
2021,04,13,11,35,12.80
2021,04,13,11,36,12.80
2021,04,13,11,37,12.80
2021,04,13,11,38,12.60
2021,04,13,11,39,12.60
2021,04,13,11,40,12.60
2021,04,13,11,41,12.50
2021,04,13,11,42,12.60
2021,04,13,11,43,12.60
2021,04,13,11,44,12.60
2021,04,13,11,45,12.60
2021,04,13,11,46,12.70
2021,04,13,11,47,12.70
2021,04,13,11,48,12.60
2021,04,13,11,49,12.60
2021,04,13,11,50,12.60
2021,04,13,11,51,12.60
2021,04,13,11,52,12.60
2021,04,13,11,53,12.60
2021,04,13,11,54,12.70
2021,04,13,11,55,12.70
2021,04,13,11,56,12.70
2021,04,13,11,57,12.70
2021,04,13,11,58,12.80
2021,04,13,11,59,12.80
2021,04,13,12,00,12.80
2021,04,13,12,01,12.80
2021,04,13,12,02,12.90
2021,04,13,12,03,13.00
2021,04,13,12,04,13.10
2021,04,13,12,05,13.30
2021,04,13,12,06,13.30
2021,04,13,12,07,13.50
2021,04,13,12,08,13.60
2021,04,13,12,09,13.60
2021,04,13,12,10,13.60
2021,04,13,12,11,13.70
2021,04,13,12,12,13.70
2021,04,13,12,13,13.80
2021,04,13,12,14,13.80
2021,04,13,12,15,13.80
2021,04,13,12,16,13.80
2021,04,13,12,17,13.70
2021,04,13,12,18,13.70
2021,04,13,12,19,13.70
2021,04,13,12,20,13.60
2021,04,13,12,21,13.70
2021,04,13,12,22,13.80
2021,04,13,12,23,13.90
2021,04,13,12,24,13.90
2021,04,13,12,25,14.00
2021,04,13,12,26,14.00
2021,04,13,12,27,14.00
2021,04,13,12,28,14.10
2021,04,13,12,29,14.00
2021,04,13,12,30,13.90
2021,04,13,12,31,14.00
2021,04,13,12,32,13.90
2021,04,13,12,33,13.90
2021,04,13,12,34,13.90
2021,04,13,12,35,13.90
2021,04,13,12,36,14.00
2021,04,13,12,37,14.10
2021,04,13,12,38,14.20
2021,04,13,12,39,14.40
2021,04,13,12,40,14.60
2021,04,13,12,41,14.70
2021,04,13,12,42,14.70
2021,04,13,12,43,14.70
2021,04,13,12,44,14.60
2021,04,13,12,45,14.50
2021,04,13,12,46,14.40
2021,04,13,12,47,14.40
2021,04,13,12,48,14.40
2021,04,13,12,49,14.50
2021,04,13,12,50,14.60
2021,04,13,12,51,14.60
2021,04,13,12,52,14.50
2021,04,13,12,53,14.40
2021,04,13,12,54,14.40
2021,04,13,12,55,14.30
2021,04,13,12,56,14.30
2021,04,13,12,57,14.20
2021,04,13,12,58,14.30
2021,04,13,12,59,14.30
2021,04,13,13,00,14.40
2021,04,13,13,01,14.40
2021,04,13,13,02,14.40
2021,04,13,13,03,14.40
2021,04,13,13,04,14.40
2021,04,13,13,05,14.40
2021,04,13,13,06,14.50
2021,04,13,13,07,14.60
2021,04,13,13,08,14.70
2021,04,13,13,09,14.90
2021,04,13,13,10,14.80
2021,04,13,13,11,14.80
2021,04,13,13,12,14.80
2021,04,13,13,13,14.90
2021,04,13,13,14,15.00
2021,04,13,13,15,15.00
2021,04,13,13,16,15.00
2021,04,13,13,17,15.00
2021,04,13,13,18,14.90
2021,04,13,13,19,14.90
2021,04,13,13,20,14.90
2021,04,13,13,21,15.00
2021,04,13,13,22,15.00
2021,04,13,13,23,15.10
2021,04,13,13,24,15.10
2021,04,13,13,25,15.10
2021,04,13,13,26,15.20
2021,04,13,13,27,15.20
2021,04,13,13,28,15.30
2021,04,13,13,29,15.30
2021,04,13,13,30,15.30
2021,04,13,13,31,15.30
2021,04,13,13,32,15.20
2021,04,13,13,33,15.20
2021,04,13,13,34,15.30
2021,04,13,13,35,15.30
2021,04,13,13,36,15.40
2021,04,13,13,37,15.40
2021,04,13,13,38,15.40
2021,04,13,13,39,15.40
2021,04,13,13,40,15.50
2021,04,13,13,41,15.50
2021,04,13,13,42,15.50
2021,04,13,13,43,15.60
2021,04,13,13,44,15.60
2021,04,13,13,45,15.60
2021,04,13,13,46,15.60
2021,04,13,13,47,15.60
2021,04,13,13,48,15.50
2021,04,13,13,49,15.40
2021,04,13,13,50,15.40
2021,04,13,13,51,15.40
2021,04,13,13,52,15.40
2021,04,13,13,53,15.40
2021,04,13,13,54,15.40
2021,04,13,13,55,15.40
2021,04,13,13,56,15.40
2021,04,13,13,57,15.50
2021,04,13,13,58,15.50
2021,04,13,13,59,15.60
2021,04,13,14,00,15.80
2021,04,13,14,01,15.80
2021,04,13,14,02,15.90
2021,04,13,14,03,15.90
2021,04,13,14,04,16.00
2021,04,13,14,05,16.00
2021,04,13,14,06,16.00
2021,04,13,14,07,15.90
2021,04,13,14,08,15.90
2021,04,13,14,09,15.90
2021,04,13,14,10,15.90
2021,04,13,14,11,16.00
2021,04,13,14,12,16.10
2021,04,13,14,13,16.10
2021,04,13,14,14,16.10
2021,04,13,14,15,16.10
2021,04,13,14,16,16.10
2021,04,13,14,17,16.10
2021,04,13,14,18,16.10
2021,04,13,14,19,16.20
2021,04,13,14,20,16.20
2021,04,13,14,21,16.20
2021,04,13,14,22,16.20
2021,04,13,14,23,16.10
2021,04,13,14,24,16.10
2021,04,13,14,25,16.10
2021,04,13,14,26,16.20
2021,04,13,14,27,16.30
2021,04,13,14,28,16.30
2021,04,13,14,29,16.20
2021,04,13,14,30,16.20
2021,04,13,14,31,16.20
2021,04,13,14,32,16.20
2021,04,13,14,33,16.20
2021,04,13,14,34,16.30
2021,04,13,14,35,16.30
2021,04,13,14,36,16.30
2021,04,13,14,37,16.30
2021,04,13,14,38,16.30
2021,04,13,14,39,16.30
2021,04,13,14,40,16.30
2021,04,13,14,41,16.30
2021,04,13,14,42,16.40
2021,04,13,14,43,16.40
2021,04,13,14,44,16.40
2021,04,13,14,45,16.40
2021,04,13,14,46,16.50
2021,04,13,14,47,16.50
2021,04,13,14,48,16.50
2021,04,13,14,49,16.60
2021,04,13,14,50,16.60
2021,04,13,14,51,16.50
2021,04,13,14,52,16.60
2021,04,13,14,53,16.70
2021,04,13,14,54,16.70
2021,04,13,14,55,16.70
2021,04,13,14,56,16.70
2021,04,13,14,57,16.70
2021,04,13,14,58,16.70
2021,04,13,14,59,16.70
2021,04,13,15,00,16.80
2021,04,13,15,01,16.80
2021,04,13,15,02,16.80
2021,04,13,15,03,16.80
2021,04,13,15,04,16.70
2021,04,13,15,05,16.60
2021,04,13,15,06,16.60
2021,04,13,15,07,16.50
2021,04,13,15,08,16.50
2021,04,13,15,09,16.50
2021,04,13,15,10,16.50
2021,04,13,15,11,16.50
2021,04,13,15,12,16.60
2021,04,13,15,13,16.70
2021,04,13,15,14,16.70
2021,04,13,15,15,16.80
2021,04,13,15,16,16.80
2021,04,13,15,17,16.80
2021,04,13,15,18,16.80
2021,04,13,15,19,16.80
2021,04,13,15,20,16.80
2021,04,13,15,21,16.80
2021,04,13,15,22,16.90
2021,04,13,15,23,16.90
2021,04,13,15,24,17.00
2021,04,13,15,25,17.10
2021,04,13,15,26,17.20
2021,04,13,15,27,17.20
2021,04,13,15,28,17.30
2021,04,13,15,29,17.20
2021,04,13,15,30,17.10
2021,04,13,15,31,17.10
2021,04,13,15,32,16.90
2021,04,13,15,33,16.90
2021,04,13,15,34,16.90
2021,04,13,15,35,17.00
2021,04,13,15,36,17.10
2021,04,13,15,37,17.20
2021,04,13,15,38,17.20
2021,04,13,15,39,17.20
2021,04,13,15,40,17.20
2021,04,13,15,41,17.20
2021,04,13,15,42,17.20
2021,04,13,15,43,17.20
2021,04,13,15,44,17.20
2021,04,13,15,45,17.30
2021,04,13,15,46,17.30
2021,04,13,15,47,17.30
2021,04,13,15,48,17.30
2021,04,13,15,49,17.20
2021,04,13,15,50,17.20
2021,04,13,15,51,17.10
2021,04,13,15,52,17.10
2021,04,13,15,53,17.10
2021,04,13,15,54,17.10
2021,04,13,15,55,17.00
2021,04,13,15,56,17.00
2021,04,13,15,57,16.90
2021,04,13,15,58,16.80
2021,04,13,15,59,16.80
2021,04,13,16,00,16.80
2021,04,13,16,01,16.80
2021,04,13,16,02,16.80
2021,04,13,16,03,16.80
2021,04,13,16,04,16.80
2021,04,13,16,05,16.80
2021,04,13,16,06,16.80
2021,04,13,16,07,16.80
2021,04,13,16,08,17.00
2021,04,13,16,09,17.10
2021,04,13,16,10,17.20
2021,04,13,16,11,17.30
2021,04,13,16,12,17.30
2021,04,13,16,13,17.20
2021,04,13,16,14,17.20
2021,04,13,16,15,17.10
2021,04,13,16,16,17.10
2021,04,13,16,17,17.00
2021,04,13,16,18,17.00
2021,04,13,16,19,17.00
2021,04,13,16,20,17.00
2021,04,13,16,21,17.10
2021,04,13,16,22,17.10
2021,04,13,16,23,17.20
2021,04,13,16,24,17.20
2021,04,13,16,25,17.10
2021,04,13,16,26,17.20
2021,04,13,16,27,17.20
2021,04,13,16,28,17.20
2021,04,13,16,29,17.20
2021,04,13,16,30,17.30
2021,04,13,16,31,17.30
2021,04,13,16,32,17.30
2021,04,13,16,33,17.30
2021,04,13,16,34,17.40
2021,04,13,16,35,17.30
2021,04,13,16,36,17.40
2021,04,13,16,37,17.40
2021,04,13,16,38,17.50
2021,04,13,16,39,17.50
2021,04,13,16,40,17.50
2021,04,13,16,41,17.60
2021,04,13,16,42,17.60
2021,04,13,16,43,17.60
2021,04,13,16,44,17.60
2021,04,13,16,45,17.70
2021,04,13,16,46,17.70
2021,04,13,16,47,17.60
2021,04,13,16,48,17.60
2021,04,13,16,49,17.50
2021,04,13,16,50,17.50
2021,04,13,16,51,17.50
2021,04,13,16,52,17.50
2021,04,13,16,53,17.40
2021,04,13,16,54,17.40
2021,04,13,16,55,17.50
2021,04,13,16,56,17.50
2021,04,13,16,57,17.60
2021,04,13,16,58,17.50
2021,04,13,16,59,17.50
2021,04,13,17,00,17.50
2021,04,13,17,01,17.60
2021,04,13,17,02,17.60
2021,04,13,17,03,17.50
2021,04,13,17,04,17.50
2021,04,13,17,05,17.50
2021,04,13,17,06,17.50
2021,04,13,17,07,17.50
2021,04,13,17,08,17.40
2021,04,13,17,09,17.50
2021,04,13,17,10,17.50
2021,04,13,17,11,17.60
2021,04,13,17,12,17.60
2021,04,13,17,13,17.60
2021,04,13,17,14,17.50
2021,04,13,17,15,17.50
2021,04,13,17,16,17.40
2021,04,13,17,17,17.40
2021,04,13,17,18,17.50
2021,04,13,17,19,17.50
2021,04,13,17,20,17.60
2021,04,13,17,21,17.60
2021,04,13,17,22,17.70
2021,04,13,17,23,17.70
2021,04,13,17,24,17.80
2021,04,13,17,25,17.90
2021,04,13,17,26,17.90
2021,04,13,17,27,18.00
2021,04,13,17,28,18.00
2021,04,13,17,29,17.90
2021,04,13,17,30,17.90
2021,04,13,17,31,17.90
2021,04,13,17,32,17.90
2021,04,13,17,33,17.80
2021,04,13,17,34,17.80
2021,04,13,17,35,17.70
2021,04,13,17,36,17.70
2021,04,13,17,37,17.80
2021,04,13,17,38,17.70
2021,04,13,17,39,17.80
2021,04,13,17,40,17.80
2021,04,13,17,41,17.80
2021,04,13,17,42,17.80
2021,04,13,17,43,17.80
2021,04,13,17,44,17.80
2021,04,13,17,45,17.80
2021,04,13,17,46,17.80